Location: Unspecified
(0.0000°N, 0.0000°E)
Time: 19:20:13
(UTC+02:00)

Ariane H10 - Visible Passes

Search period start: 03 July 2015 00:00
Search period end: 13 July 2015 00:00
Orbit: 442 x 35064 km, 4.3° (Epoch: 03 July)

Date Brightness Start Highest point End Pass type
(mag) Time Alt. Az. Time Alt. Az. Time Alt. Az.
03 Jul 4.8 07:23:10 10° W 16:50:20 74° S 16:55:30 10° ESE visible
04 Jul 7.0 03:57:55 62° W 04:21:17 85° N 13:29:43 10° E visible
05 Jul 7.5 00:41:43 34° E 00:41:43 34° E 09:54:31 10° E visible
05 Jul 2.0 20:50:20 10° WSW 20:52:59 47° S 20:56:07 15° ESE visible
05 Jul 2.0 20:50:20 10° WSW 20:52:58 47° S 20:56:14 15° ESE visible
07 Jul 6.6 04:31:16 47° W 13:48:39 88° S 14:04:30 10° E visible
08 Jul 7.4 01:15:05 47° E 01:15:05 47° E 10:32:38 10° E visible
08 Jul 2.3 21:24:48 10° WSW 21:27:40 58° S 21:29:33 34° ESE visible
08 Jul 2.3 21:24:48 10° WSW 21:27:40 58° S 21:29:27 35° ESE visible
10 Jul 6.2 05:04:41 34° W 14:27:36 85° S 14:39:05 10° E visible
11 Jul 7.2 01:48:32 62° E 01:48:32 62° E 11:09:33 10° E visible
11 Jul 2.8 21:59:03 10° WSW 22:02:28 71° S 22:02:51 68° SE visible
11 Jul 2.8 21:59:04 10° WSW 22:02:29 71° S 22:02:56 67° SE visible
